Overview Statistics Trail Chart Weather Telemetry Raw packets
 

This is the latest recevied weather packets stored in our database for station/object KD0MAC. If no packets are shown the sender has not sent any weather packets the latest 10 day(s).

<< 75 76 77 78 79 80 81 >>
Time Temp. Humidity Pressure Rain* Wind** Luminosity Snow
1788221830 33.33° C 45% 1013.2 hPa 0 mm - 62 W/m² -
1788221530 33.33° C 44% 1012.9 hPa 0 mm - 58 W/m² -
1788221230 33.33° C 44% 1013.2 hPa 0 mm - 62 W/m² -
1788220933 33.33° C 44% 1012.9 hPa 0 mm - 57 W/m² -
1788220631 33.33° C 45% 1013.2 hPa 0 mm - 59 W/m² -
1788220330 33.33° C 45% 1013.2 hPa 0 mm - 81 W/m² -
1788220030 33.33° C 44% 1013.2 hPa 0 mm - 80 W/m² -
1788219730 33.89° C 43% 1013.2 hPa 0 mm - 69 W/m² -
1788219429 34.44° C 42% 1013.2 hPa 0 mm - 125 W/m² -
1788219130 34.44° C 40% 1013.2 hPa 0 mm - 134 W/m² -
1788218831 34.44° C 40% 1013.2 hPa 0 mm - 140 W/m² -
1788218530 34.44° C 40% 1012.9 hPa 0 mm - 141 W/m² -
1788218230 35° C 41% 1012.9 hPa 0 mm - 165 W/m² -
1788217930 35° C 43% 1013.2 hPa 0 mm - 190 W/m² -
1788217631 34.44° C 39% 1013.2 hPa 0 mm - 186 W/m² -
1788217329 35° C 44% 1013.2 hPa 0 mm - 206 W/m² -
1788217029 35.56° C 36% 1013.2 hPa 0 mm - 217 W/m² -
1788216733 35° C 38% 1013.2 hPa 0 mm - 232 W/m² -
1788216429 35.56° C 38% 1013.5 hPa 0 mm - 247 W/m² -
1788216129 34.44° C 41% 1013.5 hPa 0 mm - 256 W/m² -
1788215829 34.44° C 38% 1013.5 hPa 0 mm - 237 W/m² -
1788215529 34.44° C 37% 1013.5 hPa 0 mm - 264 W/m² -
1788215229 35° C 36% 1013.5 hPa 0 mm - 272 W/m² -
1788214929 35° C 39% 1013.5 hPa 0 mm - 313 W/m² -
1788214630 35° C 41% 1013.5 hPa 0 mm - 332 W/m² -

* Rain latest hour (hover to see other rain measurements)
** Current wind speed in m/s (hover to see current wind gust speed)